sat.trackr.live / text

‹ back to catalog

STARLINK-30144

NORAD 56835 · 2023-079N

PAYLOAD ACTIVE UNKNOWN

§ Identity

Operator
Country
US
Launch date
2023-06-04
Launch site
AFETR
Launch vehicle
Mass (kg)
RCS (m²)

Purposes: comms

External: N2YO · Heavens-Above · Gunter

§ Orbital elements

Epoch: 2026-05-25T01:02:26.932992Z

Period
93.77 min
Inclination
42.9944°
Eccentricity
0.0010793
Mean motion
15.35628859 rev/d
Perigee alt
451.7 km
Apogee alt
466.4 km
Semi-major
6,837.2 km
B*
1.7415e-3
RAAN
29.9645°
Arg perigee
231.1529°
Mean anomaly
128.8363°
Rev number
16,463

§ Raw data

STARLINK-301441 56835U 23079N   26145.04336728  .00061978  00000+0  17415-2 0  99992 56835  42.9944  29.9645 0010793 231.1529 128.8363 15.35628859164632

JSON: /api/v1/satellites/56835 · /tle

For live sub-satellite position, see the globe view (requires WebGL).

§ Visibility from observer

Set your observer location to see the next 7 days of passes ≥ 10°. The values pass through the URL so the page stays shareable.

No JS? Fill the form by hand. The geolocation button needs JavaScript.